Погода Полярный

Погода Полярный : погода сейчас, прогноз погоды и архив. Всё, что Вы хотите узнать о погоде Полярный!

Хотите узнать прогноз погоды Полярный? Тогда Вам сюда: Погода Полярный

Поиск расширенной информации на нашем сайте:

Другие новости

Новости СМИ2

Главная страница сайта

Новости сайта

02.10.2013

Напоминаем, что на нашем новом сайте вы можете получить высокодетализированные прогнозы погоды по пунктам России, СНГ и мира (включающие важные для авиации метеовеличины, такие как направление и скорость ветра, видимость, явления погоды, количество и форма облачности, нижняя и верхняя граница облачности), а также ознакомиться с разнообразными материалами по авиационной метеорологии и подборкой полезных ссылок на эту тему.

Сайт Метеоцентр.Азия посвящён разработке технологий оптимизации авиаметеорологического обслуживания, включая проектирование и перспективное создание нескольких автоматизированных авиаметеорологических систем:
- система выпуска высокодетальных прогностических карт явлений погоды для нижнего воздушного пространства по России и ближнему зарубежью;
- система верификации прогнозов TAF (выпускаемых синоптиками официальных АМСГ РФ и ближнего зарубежья) и AUTOTAF (выпускаемых сайтом Метеоцентр.Азия) - выявление ошибок, онлайн-сопоставление с фактической погодой METAR, автоматическое внесение коррективов в прогнозы при резком отклонении фактической погоды от прогноза, подсчёт оправдываемости прогнозов по элементам и в целом;
- система обработки, анализа и отображения авиаметеорологической информации для применения провайдерами метеорологической информации.


Погода Полярный - сегодня

Время (UTC), дата Ветер
(°,м/с) 
Видим.   Явления Облачность Т
(°С)
Тd
(°С)
f(%) Тe
(°С)
Pmin
(гПа)
dP
(гПа)
Po
(мм)
O2
(г/м3)
Тmin Tmax R s Состояние
почвы
18 19.02.17 280 (З) 20000 м    6/0 верхняя 
[Ci fib]
-24 -25.9 84 -27  1009.9  1.2  707  314           
21 19.02.17 270 (З) 20000 м    5/0 верхняя 
[Ci fib]
-23.9 -25.7 85 -27  1011.3  1.3  708  314           
00 20.02.17 280 (З) 20000 м    3/0 верхняя 
[Ci fib]
-25.1 -26.9 85 -30  1013.3  1.6  710  317  -25.2      48  равномерный
сухой снег
100% 
03 20.02.17 270 (З) 20000 м    3/0 верхняя 
[Ci fib]
-24.1 -26 84 -27  1013.1  0.1  710  315           
06 20.02.17 280 (З) 20000 м    4/0 верхняя 
[Ci fib]
-22.4 -24.9 80 -28  1015.7  2.9  712  314           
09 20.02.17 260 (З) 20000 м    3/0 верхняя 
[Ci fib]
-22.8 -26.1 74 -26  1017.4  1.5  713  315           
12 20.02.17 310 (СЗ) 20000 м    3/0 верхняя 
[Ci fib]
-24.8 -28 75 -28  1018.7  0.7  713  318    -22.3       
15 20.02.17 тихо ()   20000 м    3/0 верхняя 
[Ci fib]
-25.6 -28.8 74 -26  1019.5  0.5  714  319           
18 20.02.17 200 (Ю) 20000 м    3/0 верхняя 
[Ci fib]
-25.2 -27.7 80 -26  1019.8  0.4  714  319           
21 20.02.17 180 (Ю) 20000 м    6/0 верхняя 
[Ci fib]
-25.1 -27.6 80 -26  1019.7  -0.1  714  319           
00 21.02.17 190 (Ю) 20000 м    6/0 верхняя 
[Ci fib]
-26.1 -28.6 79 -29  1020.6  0.6  715  320  -26.4      48  равномерный
сухой снег
100% 
03 21.02.17 210 (ЮЗ) 20000 м    3/0 верхняя 
[Ci fib]
-22.5 -25.7 75 -25  1019.7  715  315           
06 21.02.17 200 (Ю) 20000 м    3/0 верхняя 
[Ci fib]
-19.7 -23 75 -22  1018.3  -0.5  714  312           
09 21.02.17 160 (Ю) 20000 м    6/0 верхняя 
[Ci fib]
-22 -25.3 74 -25  1018.5  -0.5  714  314           
12 21.02.17 170 (Ю) 20000 м    6/0 верхняя 
[Ci fib]
-22.6 -25.1 80 -26  1020.1  1.3  715  316    -18.8       
15 21.02.17 200 (Ю) 20000 м    8/0 верхняя 
[Ci fib]
-22.2 -24.1 85 -25  1018.3  -1.4  714  315           
18 21.02.17 200 (Ю) 20000 м    8/5 480 м средняя 
[Sc|Ac trans]
-22 -23.9 84 -22  1017.9  -0.4  713  314           
21 21.02.17 210 (ЮЗ) 20000 м    8/0 верхняя 
[Ci fib]
-23.5 -25.4 84 -24  1018.3  713  316           
00 22.02.17 210 (ЮЗ) 20000 м    6/0 верхняя 
[Ci fib]
-22.2 -24.1 85 -25  1017.5  -0.5  713  314  -23.5      49  равномерный
сухой снег
100% 
03 22.02.17 150 (ЮВ) 20000 м    4/0 верхняя 
[Ci fib]
-18.5 -20.4 85 -21  1015.9  -0.5  713  309           
06 22.02.17 тихо ()   20000 м    5/0 верхняя 
[Ci fib]
-16.3 -19.7 75 -16  1015  -0.2  713  307           
09 22.02.17 140 (ЮВ) 20000 м    6/0 верхняя 
[Ci fib]
-20.5 -25.4 65 -21  1016.2  713  312           
12 22.02.17 140 (ЮВ) 20000 м    6/0 средняя, верхняя 
[Ac trans|Ci fib]
-21.8 -25.8 70 -22  1016.1  -0.4  712  314    -16       
15 22.02.17 120 (ЮВ) 20000 м    6/0 средняя, верхняя 
[Ac trans|Ci fib]
-23.2 -26.4 75 -26  1016  -0.4  712  315           
18 22.02.17 090 (В) 20000 м    8/0 средняя, верхняя 
[Ac trans|Ci fib]
-25.1 -28.4 74 -28  1016.6  712  318           
Время (UTC), дата Ветер
(°,м/с) 
Видим.   Явления Облачность Т
(°С)
Тd
(°С)
f(%) Тe
(°С)
Pmin
(гПа)
dP
(гПа)
Po
(мм)
O2
(г/м3)
Тmin Tmax R s Состояние
почвы

Для получения пояснительной информации подведите курсор к названию столбца.

ПОГОДА Полярный - архив

Всё, что Вы хотите узнать о погоде Полярный - удобно и подробно!

Выберите нужную дату (начиная с 1 января 2015* года) и нажмите кнопку "Найти".
Будут отображены архивные сводки погоды по пункту Полярный, начиная с указанной даты.


Отображать данные в формате CSV (для использования в таблицах Excel)


Внимание! Наш архив погоды предназначен исключительно для личного некоммерческого использования в познавательных целях. Если Вам необходимы официальные справки о состоянии погоды (для производственных, юридических, коммерческих и т.п. целей), обращайтесь в органы Росгидромета.

*Примечание: данная дата относится к архиву по метеостанциям СССР (Россия, СНГ, Балтия).
Архив по метеостанциям Зарубежной Европы и Азии (кроме Китая) хранится 10 дней, по другим регионам земного шара (Китай, Африка, Америка, Австралия, Океания) - 1 день.

Полярный - район местоположения метеостанции


Название, широта, долгота, высота метеостанции:
Полярный 66.5°ш. 112°д. 509 м над ур. моря [Российская Федерация]

Дополнительная информация

В oтличие oт бoльшинства пoгoдных сайтoв мы публикуем пoдрoбную метеoинфoрмацию в детальнoм прoфессиoнальнoм фoрмате.

Характеристики температуры и влажнoсти вoздуха измеряются на высoте 2 м в тени вдали oт зданий и деревьев.
Скoрoсть ветра измеряется на высoте 10 м (на урoвне рoста челoвека скoрoсть ветра ниже в 1.5-2 раза). Если метеoстанция нахoдится в гoрoде или в лесу, тo скoрoсть ветра занижена на 2-4 м/с пo сравнению с oткрытым местoм. Скoрoсть ветра над акватoриями крупных рек и oзёр, а также на вершинах хoлмoв на 2-5 м/с выше, чем в oбычных услoвиях.
Атмoсфернoе давление в разных тoчках местнoсти мoжет значительнo oтличаться oт давления на метеoстанции, в зависимoсти oт услoвий рельефа (при пoдъёме на 10 м давление пoнижается примернo на 1 мм рт.ст.).